Terminal Aerodrome Forecast
Issued by NWS Mt. Holly, NJ

Home | Current Version | Previous Version | Text Only | Print | Product List | Glossary On
Versions: 1 2 3 4 5 6 7 8 9 10 11 12 13 14 15 16 17 18 19 20 21 22 23 24 25 26 27 28 29 30 31 32 33 34 35 36 37 38 39 40 41 42 43 44 45 46 47 48 49 50
000
FTAK31 PANC 211215 AAA
TAFABE
TAF AMD
PABE 211215Z 2112/2212 20012KT 5SM -SHSN BKN018 OVC035
      TEMPO 2112/2116 1SM -SHSN BKN012
     FM211600 16011KT P6SM -SHSN SCT012 BKN020
     FM220200 17008KT P6SM VCSH SCT012 BKN020=

USA.gov is the U.S. government's official web portal to all federal, state and local government web resources and services.